Location: Peterborough
(44.3091°N, 78.3197°W)
Time: 04:54:07
(UTC-04:00)

Tiros 1 despin weight - Pass Details

Date: 23 March 2023
Orbit: 586 x 632 km, 48.2° (Epoch: 08 June)

Event Time Altitude Azimuth Distance (km) Brightness Sun altitude
Rises 21:25:02 0° 199° (SSW) 2,793 ? -20.9°
Enters shadow 21:26:16 - 193° (SSW) 2,376 ? -21.1°
Reaches altitude 10° 21:27:50 10° 181° (S) 1,900 - -21.3°
Maximum altitude 21:30:51 19° 137° (SE) 1,437 - -21.8°
Drops below altitude 10° 21:33:54 10° 93° (E) 1,918 - -22.3°
Sets 21:36:44 0° 75° (ENE) 2,831 - -22.8°
